Flag for Albania Weather past 2 weeks in Durrës, Albania

Now
66 °F

Passing clouds.


Feels Like: 66 °F
Forecast: 61 / 74 °F
Wind: 3 mph from Southeast

Location: Tirana Airport

Current Time: Oct 21, 2014 at 10:51:58 AM

Latest Report: Oct 21, 2014 at 10:20 AM


Visibility: N/A

Pressure: 30.01 "Hg

Humidity: 64%

Dew point: 54 °F

Location of DurrësLocation

Historic Weather in Durrës — Graph

°F

Durrës temperature yesterday

Maximum temperature yesterday: 75 °F (at 12:50 PM)
Minimum temperature yesterday: 48 °F (at 6:50 AM)
Average temperature yesterday: 61 °F

Past Weeks' High & Low Weather Summary

 TemperatureHumidityPressure
High82 °F (Oct 9, 1:20 PM)100% (Oct 8, 5:20 AM)30.27 "Hg (Oct 8, 5:20 AM)
Low48 °F (Oct 19, 7:20 AM)24% (Oct 19, 1:20 PM)29.92 "Hg (Oct 6, 5:20 PM)
Average66 °F77%30.08 "Hg
* Reported Oct 6 9:20 AM — Oct 21 9:50 AM, Durrës, Weather by CustomWeather, © 2014

Note: Actual official high and low records may vary slightly from our data, if they occured in-between our weather recording intervals... More about our weather records

Advertising

Durrës weather history for previous 24 hours

 ConditionsComfort  
Time TempWeatherWind HumidityBarometerVisibility
9:50 AM
Oct 21
64 °FSunny.5 mph68%30.04 "Hg10 mi
9:20 AM61 °FSunny.5 mph77%30.04 "Hg10 mi
8:50 AM57 °FSunny.3 mph88%30.01 "Hg10 mi
8:20 AM54 °FSunny.2 mph94%30.01 "Hg10 mi
7:50 AM50 °FClear.3 mph94%30.01 "Hg5 mi
7:20 AM48 °FClear.2 mph94%30.01 "Hg5 mi
6:50 AM50 °FClear.2 mph94%30.01 "Hg5 mi
6:20 AM50 °FClear.2 mph94%30.01 "Hg10 mi
5:50 AM50 °FClear.3 mph88%30.01 "Hg10 mi
5:20 AM50 °FClear.3 mph94%30.04 "Hg10 mi
4:50 AM52 °FClear.3 mph94%30.04 "Hg5 mi
4:20 AM52 °FClear.3 mph88%30.04 "Hg4 mi
3:50 AM50 °FClear.2 mph94%30.04 "Hg4 mi
3:20 AM52 °FClear.3 mph88%30.04 "Hg5 mi
2:50 AM50 °FClear.3 mph94%30.07 "Hg10 mi
2:20 AM52 °FClear.3 mph94%30.07 "Hg10 mi
1:50 AM52 °FClear.2 mph88%30.07 "Hg5 mi
1:20 AM52 °FClear.2 mph88%30.07 "Hg5 mi
12:50 AM52 °FClear.No wind94%30.07 "Hg5 mi
12:20 AM52 °FClear.No wind94%30.09 "Hg5 mi
11:50 PM
Oct 20
54 °FClear.2 mph94%30.09 "Hg5 mi
11:20 PM55 °FClear.3 mph88%30.09 "Hg10 mi
10:50 PM54 °FClear.3 mph88%30.09 "Hg10 mi
10:20 PM55 °FClear.2 mph88%30.09 "Hg10 mi
9:50 PM55 °FClear.2 mph94%30.12 "Hg10 mi
9:20 PM55 °FClear.2 mph88%30.12 "Hg10 mi
8:50 PM57 °FClear.No wind88%30.12 "Hg10 mi
8:20 PM57 °FClear.No wind88%30.12 "Hg10 mi
7:50 PM59 °FClear.No wind82%30.12 "Hg10 mi
7:20 PM59 °FClear.No wind82%30.12 "Hg10 mi
6:50 PM63 °FSunny.No wind68%30.12 "Hg10 mi
6:20 PM64 °FSunny.3 mph64%30.12 "Hg10 mi
5:50 PM66 °FSunny.6 mph60%30.12 "Hg10 mi
5:20 PM68 °FSunny.8 mph60%30.12 "Hg10 mi
4:50 PM70 °FSunny.8 mph53%30.12 "Hg10 mi
4:20 PM72 °FSunny.8 mph53%30.12 "Hg10 mi
3:50 PM73 °FPassing clouds.8 mph53%30.12 "HgN/A
3:20 PM72 °FPassing clouds.7 mph53%30.12 "HgN/A
2:50 PM73 °FPassing clouds.7 mph50%30.15 "HgN/A
2:20 PM75 °FPassing clouds.5 mph44%30.15 "HgN/A
1:50 PM75 °FPassing clouds.3 mph47%30.15 "HgN/A
1:20 PM75 °FSunny.2 mph44%30.18 "Hg10 mi
12:50 PM75 °FSunny.2 mph44%30.18 "Hg10 mi
12:20 PM73 °FSunny.2 mph47%30.18 "Hg10 mi
11:50 AM70 °FSunny.2 mph46%30.21 "Hg10 mi
11:20 AM70 °FSunny.2 mph53%30.21 "Hg10 mi
10:50 AM70 °FSunny.2 mph46%30.21 "Hg10 mi
10:20 AM68 °FPassing clouds.3 mph49%30.21 "HgN/A
Weather by CustomWeather, © 2014

See weather overviewHow to use our weather pages